Terminal Aerodrome Forecast
Issued by NWS Cleveland, OH

Home | Current Version | Previous Version | Text Only | Print | Product List | Glossary Off
Versions: 1 2 3 4 5 6 7 8 9 10 11 12 13 14 15 16 17 18 19 20

000
FTUS41 KCLE 221100
TAFCAK
TAF
KCAK 221130Z 2212/2312 24008KT 5SM BR BKN015
     FM221300 26012KT 5SM BR BKN008 OVC025
     FM221600 30014G20KT P6SM BKN015 OVC025
     FM221800 31018G25KT P6SM BKN025
     FM230100 32010KT P6SM BKN030=

USA.gov is the U.S. government's official web portal to all federal, state and local government web resources and services.